This is the latest recevied weather packets stored in our database for station/object W5HKR. If no packets are shown the sender has not sent any weather packets the latest 10 day(s).
| Time | Temp. | Humidity | Pressure | Rain* | Wind** | Luminosity | Snow |
|---|---|---|---|---|---|---|---|
| 1777638801 | 16.11° C | 98% | 983.4 hPa | 0.51 mm | - | - | - |
| 1777638500 | 18.33° C | 91% | 990.6 hPa | 1.02 mm | - | - | - |
| 1777637900 | 16.11° C | 98% | 983.5 hPa | 3.05 mm | - | - | - |
| 1777637793 | 16.11° C | 98% | 984.1 hPa | 3.56 mm | - | - | - |
| 1777637601 | 16.11° C | 98% | 983.4 hPa | 3.81 mm | - | - | - |
| 1777637302 | 18.33° C | 91% | 990.6 hPa | 4.57 mm | - | - | - |
| 1777637001 | 16.11° C | 98% | 983.1 hPa | 4.83 mm | - | - | - |
| 1777636701 | 18.33° C | 91% | 990.6 hPa | 5.84 mm | - | - | - |
| 1777636401 | 18.33° C | 91% | 990.6 hPa | 6.6 mm | - | - | - |
| 1777636103 | 16.11° C | 98% | 982.7 hPa | 6.6 mm | - | - | - |
| 1777635800 | 16.11° C | 98% | 982.8 hPa | 7.62 mm | - | - | - |
| 1777635633 | 18.33° C | 91% | 990.6 hPa | 8.38 mm | - | - | - |
| 1777635501 | 18.33° C | 91% | 990.6 hPa | 8.64 mm | - | - | - |
| 1777634903 | 16.11° C | 98% | 981 hPa | 9.4 mm | - | - | - |
| 1777634601 | 18.33° C | 91% | 990.6 hPa | 10.41 mm | - | - | - |
| 1777634552 | 16.11° C | 98% | 984.3 hPa | 9.65 mm | - | - | - |
| 1777634301 | 18.33° C | 91% | 990.6 hPa | 9.4 mm | - | - | - |
| 1777634002 | 16.11° C | 98% | 984.8 hPa | 8.38 mm | - | - | - |
| 1777633702 | 18.33° C | 91% | 990.6 hPa | 8.13 mm | - | - | - |
| 1777633473 | 18.33° C | 91% | 990.6 hPa | 7.62 mm | - | - | - |
| 1777633401 | 16.11° C | 98% | 983.3 hPa | 7.62 mm | - | - | - |
| 1777633101 | 18.33° C | 91% | 990.6 hPa | 7.62 mm | - | - | - |
| 1777632801 | 16.67° C | 98% | 983.1 hPa | 7.62 mm | - | - | - |
| 1777632500 | 16.67° C | 98% | 983.1 hPa | 8.89 mm | - | - | - |
| 1777632395 | 18.33° C | 91% | 990.6 hPa | 10.41 mm | - | - | - |
* Rain latest hour (hover to see other rain measurements)
** Current wind speed in m/s (hover to see current wind gust speed)